SL-14 DEB, 47078

Orbit data source: Space-Track

SL-14 DEB, 47078 is space debris in LEO originally from a launch on Thu, 15 Aug 1991 UTC launched from the Plesetsk Missile And Space Complex (PKMTR). Debris objects in space refer to the collection of defunct objects orbiting the Earth. Examples of debris include non-operational satellites, rocket bodies, and fragments generated from explosions, collisions, or faulty payload assembly.

Loading next visibility...
Identifier
47078, 1991-056DC
Orbit
LEO
Country
Flag of CISCIS
Related business
Manufacturer
Unknown
Mission
Spacecraft
Bus & Motor
Unknown
Mass
Unknown
Launch date (UTC)
1991-08-15 (34 years ago)
Launch vehicle
Unknown
Launch site
Plesetsk Missile And Space Complex (PKMTR)
Object type
Payload
Rocket body
Debris
Shape & HBR
Unknown shape, 0.1 m
Radar Cross Section
Small (<0.1 m²)

Expand to show TLE details & history
Last TLE update: 1 week ago

TLE from 1 week ago
0 SL-14 DEB
1 47078U 91056DC  25345.67805839  .00001551  00000-0  32880-2 0  9997
2 47078  82.5534 243.9135 0045957  41.2543 319.2044 13.29763491247619
Epoch: 2025-12-11T16:16Z
TLE epoch observation values (Epoch: 2025-12-11T16:16:24.244Z)
Latitude
-0.00006°
Longitude
-80.81811°
Altitude
1,124.361 km
Speed
7.303 km/s
True Right ascension
16h 15m 39s
True Declination
0° 00' 00"
Sunlit
Object was in daylight at epoch
Visualization orbit readout
Latitude
Unknown
Longitude
Unknown
Altitude
Unknown
Speed
Unknown
Apparent Right ascension
Unknown
Apparent Declination
Unknown
Sunlit
N/A
Visualization observer readout
Local Sidereal Time
12:46:00
Azimuth
Unknown
Elevation
Unknown
Doppler factor
Unknown
Orbital elements
Apogee altitude
1,179.456 km
Perigee altitude
1,110.309 km
Semi-major axis
7,523.019 km
Eccentricity
0.0046
Inclination
82.5534°
RAAN
243.9135°
Arg. of periapsis
41.2543°
True anomaly
318.85882°
Mean anomaly
319.2044°
Eccentric anomaly
319.03176°
Mean motion
3.32625 °/min
Orbital period
108.23 mins
BSTAR
0.003288
Loading maneuver chart data...
Computing Atmospheric mass density...
Loading historical data...
Loading historical data...
Loading historical data...
Loading historical data...
Loading historical data...
Loading historical data...
Loading historical data...

Documentation

Showing up to 5 results
|